Weather History for Benton Harbor, MI

Change the Weather History Date:

Monday, December 30, 2013

  Actual Average Record
Temperature  
Mean Temperature 18 °F -  
Max Temperature 21 °F 32 °F 58 °F (1965)
Min Temperature 15 °F 18 °F -7 °F (1983)
Degree Days  
Heating Degree Days 47    
Moisture  
Dew Point 11 °F    
Average Humidity 77    
Maximum Humidity 93    
Minimum Humidity 62    
Precipitation  
Precipitation 0.02 in - - ()
Sea Level Pressure  
Sea Level Pressure 30.20 in    
Wind  
Wind Speed 9 mph (WSW)    
Max Wind Speed 15 mph    
Max Gust Speed 20 mph    
Visibility 5 miles    
Events Fog , Snow    
Averages and records for this station are not official NWS values.
T = Trace of Precipitation, MM = Missing Value Source: NWS Daily Summary

Daily Weather History Graph

Daily Weather History Graph

Search for Another Location

Airport:

Trip Planner

Search our weather history database for the weather conditions in past years. The results will help you decide how hot, cold, wet, or windy it might be!

Date:

Astronomy

Dec. 30, 2013 Rise Set
Actual Time 8:13 AM EST 5:23 PM EST
Civil Twilight 7:42 AM EST 5:54 PM EST
Nautical Twilight 7:07 AM EST 6:29 PM EST
Astronomical Twilight 6:33 AM EST 7:03 PM EST
Moon 6:02 AM EST 3:56 PM EST
Length of Visible Light 10h 12m
Length of Day
9h 09m
Waning Crescent, 5% of the Moon is Illuminated
Dec 30
Waning Crescent
Jan 1
New
Jan 7
First Quarter
Jan 15
Full
Jan 24
Last Quarter

Hourly Weather History & Observations

Time (EST) Temp. Windchill Dew Point Humidity Pressure Visibility Wind Dir Wind Speed Gust Speed Precip Events Conditions
12:12 AM 21.2 °F 9.5 °F 10.4 °F 63% 30.09 in 10.0 mi WNW 11.5 mph 19.6 mph N/A   Overcast
12:53 AM 19.9 °F 11.1 °F 10.9 °F 68% 30.13 in 9.0 mi Variable 6.9 mph 16.1 mph 0.00 in Snow Light Snow
1:04 AM 19.4 °F 8.6 °F 10.4 °F 68% 30.10 in 10.0 mi NW 9.2 mph 18.4 mph N/A   Overcast
1:53 AM 19.9 °F 7.9 °F 10.0 °F 65% 30.14 in 9.0 mi WNW 11.5 mph - 0.00 in Snow Light Snow
2:53 AM 19.9 °F 6.7 °F 9.0 °F 62% 30.17 in 10.0 mi WNW 13.8 mph 17.3 mph N/A   Overcast
3:44 AM 19.4 °F 7.9 °F 10.4 °F 68% 30.16 in 7.0 mi WNW 10.4 mph 18.4 mph 0.00 in Snow Light Snow
3:53 AM 19.0 °F 9.0 °F 10.9 °F 71% 30.19 in 9.0 mi NW 8.1 mph - 0.00 in   Overcast
4:17 AM 19.4 °F 10.4 °F 10.4 °F 68% 30.16 in 8.0 mi WNW 6.9 mph 16.1 mph 0.00 in Snow Light Snow
4:53 AM 18.0 °F 6.1 °F 10.9 °F 74% 30.20 in 8.0 mi West 10.4 mph - 0.00 in Snow Light Snow
5:07 AM 17.6 °F 9.3 °F 10.4 °F 73% 30.16 in 7.0 mi Variable 5.8 mph - 0.00 in Snow Light Snow
5:18 AM 17.6 °F 6.4 °F 10.4 °F 73% 30.16 in 4.0 mi WNW 9.2 mph - 0.00 in Snow Light Snow
5:53 AM 18.0 °F 6.1 °F 10.9 °F 74% 30.21 in 7.0 mi West 10.4 mph - 0.00 in   Overcast
6:53 AM 18.0 °F 7.7 °F 10.0 °F 71% 30.24 in 9.0 mi West 8.1 mph - 0.00 in   Overcast
7:04 AM 17.6 °F 8.2 °F 12.2 °F 79% 30.21 in 1.5 mi West 6.9 mph - 0.00 in Snow Light Snow
7:07 AM 17.6 °F 8.2 °F 12.2 °F 79% 30.21 in 1.2 mi West 6.9 mph - 0.00 in Snow Light Snow
7:16 AM 17.6 °F 8.2 °F 14.0 °F 86% 30.21 in 2.0 mi WNW 6.9 mph - 0.00 in Snow Light Snow
7:32 AM 17.6 °F 7.3 °F 12.2 °F 79% 30.21 in 4.0 mi West 8.1 mph - 0.00 in Snow Light Snow
7:53 AM 18.0 °F 8.7 °F 10.9 °F 74% 30.25 in 6.0 mi West 6.9 mph - 0.00 in Snow Light Snow
8:16 AM 17.6 °F 8.2 °F 10.4 °F 73% 30.23 in 7.0 mi West 6.9 mph - 0.00 in Snow Light Snow
8:53 AM 18.0 °F 7.7 °F 10.0 °F 71% 30.27 in 9.0 mi West 8.1 mph - 0.00 in   Overcast
9:53 AM 18.0 °F 7.7 °F 10.9 °F 74% 30.29 in 6.0 mi West 8.1 mph - 0.00 in Snow Light Snow
10:07 AM 17.6 °F 5.7 °F 10.4 °F 73% 30.26 in 10.0 mi West 10.4 mph - 0.00 in   Overcast
10:34 AM 17.6 °F 4.3 °F 12.2 °F 79% 30.27 in 9.0 mi West 12.7 mph - 0.00 in   Overcast
10:53 AM 18.0 °F 5.4 °F 10.9 °F 74% 30.31 in 10.0 mi West 11.5 mph - 0.00 in   Overcast
11:32 AM 17.6 °F 3.7 °F 12.2 °F 79% 30.27 in 2.5 mi West 13.8 mph - 0.00 in Snow Light Snow
11:44 AM 17.6 °F 3.7 °F 12.2 °F 79% 30.27 in 1.8 mi West 13.8 mph - 0.00 in Snow Light Snow
11:50 AM 17.6 °F 3.2 °F 10.4 °F 73% 30.27 in 3.0 mi West 15.0 mph - 0.00 in Snow Light Snow
11:51 AM 17.1 °F 3.6 °F 10.9 °F 77% 30.30 in 3.0 mi West 12.7 mph - 0.00 in Snow Light Snow
12:53 PM 17.1 °F 5.8 °F 9.0 °F 71% 30.28 in 10.0 mi West 9.2 mph - 0.00 in   Mostly Cloudy
1:14 PM 15.8 °F 4.2 °F 8.6 °F 73% 30.23 in 10.0 mi West 9.2 mph - N/A   Scattered Clouds
1:23 PM 15.8 °F 3.4 °F 8.6 °F 73% 30.22 in 10.0 mi West 10.4 mph - N/A   Mostly Cloudy
1:53 PM 16.0 °F 4.4 °F 10.0 °F 77% 30.25 in 10.0 mi WSW 9.2 mph - N/A   Mostly Cloudy
2:53 PM 16.0 °F 10.4 °F 10.0 °F 77% 30.22 in 3.0 mi West 3.5 mph - 0.00 in Snow Light Snow
3:03 PM 15.8 °F 8.6 °F 10.4 °F 79% 30.19 in 1.8 mi WSW 4.6 mph - 0.00 in Snow Light Snow
3:11 PM 15.8 °F - 10.4 °F 79% 30.19 in 1.2 mi Calm Calm - 0.00 in Snow Light Snow
3:18 PM 15.8 °F - 10.4 °F 79% 30.19 in 1.5 mi Calm Calm - 0.00 in Snow Light Snow
3:25 PM 15.8 °F - 10.4 °F 79% 30.19 in 1.2 mi Calm Calm - 0.00 in Snow Light Snow
3:32 PM 15.8 °F - 10.4 °F 79% 30.19 in 2.0 mi Calm Calm - 0.00 in Snow Light Snow
3:38 PM 15.8 °F 10.2 °F 10.4 °F 79% 30.19 in 1.2 mi SW 3.5 mph - 0.00 in Snow Light Snow
3:48 PM 15.8 °F 10.2 °F 12.2 °F 86% 30.20 in 2.0 mi SSW 3.5 mph - 0.00 in Snow Light Snow
3:53 PM 16.0 °F 10.4 °F 12.0 °F 84% 30.23 in 2.5 mi SSW 3.5 mph - 0.00 in Snow Light Snow
4:21 PM 17.6 °F 10.7 °F 12.2 °F 79% 30.20 in 4.0 mi South 4.6 mph - 0.00 in Snow Light Snow
4:53 PM 17.1 °F 5.8 °F 10.9 °F 77% 30.23 in 5.0 mi SW 9.2 mph - 0.00 in Snow Light Snow
5:08 PM 17.6 °F 6.4 °F 10.4 °F 73% 30.19 in 2.5 mi SW 9.2 mph - 0.00 in Snow Light Snow
5:15 PM 17.6 °F 8.2 °F 10.4 °F 73% 30.20 in 5.0 mi SSW 6.9 mph - 0.00 in   Haze
5:25 PM 17.6 °F 6.4 °F 10.4 °F 73% 30.19 in 2.5 mi SSW 9.2 mph - 0.00 in Snow Light Snow
5:44 PM 17.6 °F 9.3 °F 12.2 °F 79% 30.19 in 5.0 mi SSW 5.8 mph - 0.00 in Snow Light Snow
5:53 PM 17.1 °F 8.7 °F 12.0 °F 81% 30.22 in 7.0 mi SSW 5.8 mph - 0.00 in   Overcast
6:53 PM 17.1 °F 5.0 °F 10.0 °F 74% 30.22 in 10.0 mi WSW 10.4 mph - 0.00 in   Overcast
7:53 PM 17.1 °F 5.8 °F 9.0 °F 71% 30.21 in 10.0 mi West 9.2 mph - N/A   Overcast
8:42 PM 17.6 °F 8.2 °F 8.6 °F 68% 30.17 in 10.0 mi WSW 6.9 mph - N/A   Overcast
8:49 PM 17.6 °F 8.2 °F 8.6 °F 68% 30.17 in 10.0 mi SW 6.9 mph - N/A   Overcast
8:53 PM 17.1 °F 7.6 °F 10.0 °F 74% 30.20 in 10.0 mi SSW 6.9 mph - N/A   Overcast
9:22 PM 15.8 °F 8.6 °F 12.2 °F 86% 30.16 in 1.8 mi SSW 4.6 mph - 0.00 in Snow Light Snow
9:44 PM 15.8 °F 6.1 °F 12.2 °F 86% 30.16 in 1.2 mi SSW 6.9 mph - 0.00 in Snow Light Snow
9:53 PM 15.1 °F 5.2 °F 12.9 °F 91% 30.19 in 1.2 mi SSW 6.9 mph - 0.00 in Snow Light Snow
10:41 PM 15.8 °F 8.6 °F 12.2 °F 86% 30.15 in 0.8 mi SSW 4.6 mph - 0.01 in Snow Light Snow
10:49 PM 15.8 °F 4.2 °F 14.0 °F 93% 30.15 in 0.5 mi WSW 9.2 mph - 0.02 in Fog , Snow Snow
10:53 PM 16.0 °F 3.6 °F 14.0 °F 92% 30.19 in 0.5 mi WSW 10.4 mph - 0.02 in Fog , Snow Snow
10:58 PM 15.8 °F 4.2 °F 14.0 °F 93% 30.15 in 1.0 mi WSW 9.2 mph - 0.00 in Snow Light Snow
11:01 PM 15.8 °F 2.7 °F 12.2 °F 86% 30.15 in 1.5 mi WSW 11.5 mph - 0.00 in Snow Light Snow
11:28 PM 15.8 °F 2.7 °F 12.2 °F 86% 30.15 in 1.0 mi West 11.5 mph - 0.00 in Snow Light Snow
11:34 PM 15.8 °F 1.4 °F 14.0 °F 93% 30.15 in 0.5 mi West 13.8 mph - 0.00 in Fog , Snow Snow
11:45 PM 15.8 °F 2.1 °F 12.2 °F 86% 30.15 in 1.0 mi WSW 12.7 mph - 0.00 in Snow Light Snow
11:53 PM 16.0 °F 2.9 °F 12.9 °F 88% 30.19 in 1.2 mi WSW 11.5 mph - 0.00 in Snow Light Snow